�������l�o���
Date,Time,MP-1(��Sv/h),MP-2(��Sv/h),MP-3(��Sv/h),MP-4(��Sv/h),MP-5(��Sv/h),MP-6(��Sv/h),MP-7(��Sv/h),MP-8(��Sv/h),����,����(m/s),���J
2023/03/07,00:00,0.575,0.837,0.509,1.067,0.742,0.326,0.588,0.557,�k��,4.9,��
2023/03/07,00:10,0.577,0.838,0.507,1.068,0.743,0.326,0.588,0.557,�k��,5.0,��
2023/03/07,00:20,0.574,0.836,0.510,1.068,0.742,0.326,0.587,0.559,�k��,5.7,��
2023/03/07,00:30,0.575,0.839,0.509,1.066,0.740,0.325,0.587,0.556,�k��,5.0,��
2023/03/07,00:40,0.575,0.837,0.508,1.066,0.741,0.327,0.587,0.557,�k��,4.3,��
2023/03/07,00:50,0.575,0.836,0.509,1.066,0.742,0.325,0.586,0.557,���k��,3.0,��
2023/03/07,01:00,0.574,0.838,0.508,1.065,0.739,0.326,0.586,0.558,���k��,2.6,��
2023/03/07,01:10,0.575,0.837,0.508,1.066,0.741,0.326,0.587,0.557,��,2.5,��
2023/03/07,01:20,0.573,0.838,0.508,1.064,0.744,0.325,0.586,0.557,���쐼,1.7,��
2023/03/07,01:30,0.575,0.837,0.509,1.064,0.739,0.326,0.586,0.557,��,2.3,��
2023/03/07,01:40,0.574,0.835,0.509,1.064,0.740,0.326,0.587,0.558,��,2.0,��
2023/03/07,01:50,0.574,0.837,0.509,1.065,0.741,0.325,0.587,0.560,���k��,1.5,��
2023/03/07,02:00,0.575,0.837,0.508,1.064,0.740,0.325,0.587,0.557,���k��,2.5,��
2023/03/07,02:10,0.574,0.837,0.509,1.064,0.740,0.325,0.586,0.556,��,3.4,��
2023/03/07,02:20,0.574,0.836,0.508,1.064,0.741,0.326,0.587,0.557,���k��,4.3,��
2023/03/07,02:30,0.574,0.837,0.508,1.063,0.740,0.326,0.587,0.556,���k��,4.6,��
2023/03/07,02:40,0.574,0.835,0.508,1.063,0.741,0.325,0.587,0.557,���k��,4.8,��
2023/03/07,02:50,0.572,0.837,0.507,1.062,0.743,0.326,0.587,0.557,��,3.1,��
2023/03/07,03:00,0.574,0.836,0.508,1.063,0.740,0.325,0.587,0.558,���쐼,2.5,��
2023/03/07,03:10,0.573,0.837,0.506,1.064,0.741,0.326,0.586,0.557,��,3.1,��
2023/03/07,03:20,0.574,0.835,0.506,1.063,0.740,0.326,0.586,0.558,��,4.3,��
2023/03/07,03:30,0.573,0.834,0.505,1.061,0.741,0.325,0.587,0.557,���쐼,5.6,��
2023/03/07,03:40,0.573,0.834,0.506,1.064,0.739,0.324,0.587,0.556,��,5.1,��
2023/03/07,03:50,0.572,0.837,0.508,1.062,0.738,0.325,0.587,0.557,��,5.0,��
2023/03/07,04:00,0.573,0.836,0.507,1.062,0.739,0.325,0.587,0.558,��,5.5,��
2023/03/07,04:10,0.573,0.836,0.506,1.063,0.740,0.325,0.587,0.556,��,5.6,��
2023/03/07,04:20,0.573,0.837,0.506,1.061,0.741,0.324,0.588,0.556,��,5.0,��
2023/03/07,04:30,0.574,0.835,0.507,1.062,0.740,0.325,0.586,0.558,��,4.7,��
2023/03/07,04:40,0.574,0.837,0.507,1.061,0.740,0.324,0.588,0.556,��,3.9,��
2023/03/07,04:50,0.574,0.834,0.507,1.063,0.741,0.325,0.587,0.558,���쐼,3.7,��
2023/03/07,05:00,0.574,0.836,0.508,1.064,0.739,0.324,0.587,0.556,��,3.9,��
2023/03/07,05:10,0.573,0.836,0.508,1.062,0.739,0.325,0.587,0.557,��,4.0,��
2023/03/07,05:20,0.572,0.836,0.506,1.063,0.741,0.323,0.587,0.557,��,4.1,��
2023/03/07,05:30,0.572,0.834,0.506,1.062,0.741,0.324,0.586,0.556,��,3.7,��
2023/03/07,05:40,0.573,0.833,0.507,1.062,0.738,0.324,0.586,0.557,��,3.7,��
2023/03/07,05:50,0.574,0.834,0.508,1.063,0.739,0.325,0.587,0.557,��,3.2,��
2023/03/07,06:00,0.573,0.835,0.507,1.063,0.740,0.325,0.588,0.557,��,3.5,��
2023/03/07,06:10,0.573,0.835,0.507,1.060,0.740,0.325,0.587,0.557,��,3.3,��
2023/03/07,06:20,0.573,0.835,0.505,1.063,0.740,0.326,0.587,0.556,��,3.3,��
2023/03/07,06:30,0.575,0.837,0.506,1.064,0.741,0.326,0.586,0.558,��,3.1,��
2023/03/07,06:40,0.574,0.835,0.506,1.064,0.741,0.325,0.588,0.557,���k��,3.4,��
2023/03/07,06:50,0.573,0.836,0.507,1.064,0.739,0.325,0.585,0.556,��,3.4,��
2023/03/07,07:00,0.572,0.835,0.506,1.064,0.740,0.325,0.586,0.557,���k��,2.6,��
2023/03/07,07:10,0.574,0.834,0.507,1.061,0.740,0.325,0.585,0.557,��,1.1,��
2023/03/07,07:20,0.574,0.836,0.506,1.067,0.739,0.326,0.587,0.556,���k��,1.5,��
2023/03/07,07:30,0.574,0.836,0.508,1.064,0.741,0.325,0.586,0.558,���k��,2.3,��
2023/03/07,07:40,0.574,0.836,0.509,1.065,0.739,0.325,0.587,0.557,���k��,3.6,��
2023/03/07,07:50,0.574,0.837,0.508,1.062,0.740,0.326,0.587,0.557,���k��,4.6,��
2023/03/07,08:00,0.576,0.835,0.509,1.065,0.740,0.326,0.588,0.557,���k��,4.8,��
2023/03/07,08:10,0.575,0.836,0.508,1.066,0.739,0.325,0.587,0.556,���k��,5.2,��
2023/03/07,08:20,0.575,0.836,0.507,1.065,0.741,0.327,0.589,0.556,��,3.5,��
2023/03/07,08:30,0.574,0.835,0.509,1.063,0.740,0.327,0.589,0.557,���k��,2.6,��
2023/03/07,08:40,0.575,0.833,0.506,1.064,0.740,0.325,0.589,0.556,�k��,1.9,��
2023/03/07,08:50,0.574,0.836,0.507,1.065,0.741,0.327,0.588,0.557,���쐼,0.8,��
2023/03/07,09:00,0.577,0.834,0.507,1.067,0.743,0.325,0.586,0.557,��,0.9,��
2023/03/07,09:10,0.577,0.834,0.509,1.064,0.740,0.325,0.588,0.556,��,1.5,��
2023/03/07,09:20,0.579,0.836,0.509,1.067,0.742,0.326,0.588,0.558,���k��,1.5,��
2023/03/07,09:30,0.578,0.833,0.509,1.067,0.741,0.326,0.587,0.559,�쓌,1.5,��
2023/03/07,09:40,0.578,0.835,0.509,1.065,0.742,0.327,0.587,0.561,�쓌,1.9,��
2023/03/07,09:50,0.577,0.834,0.509,1.065,0.743,0.326,0.587,0.560,�쓌,2.2,��
2023/03/07,10:00,0.576,0.836,0.510,1.065,0.741,0.327,0.588,0.558,�쓌,3.3,��
2023/03/07,10:10,0.576,0.834,0.510,1.066,0.741,0.327,0.588,0.557,�쓌,3.6,��
2023/03/07,10:20,0.575,0.835,0.510,1.067,0.740,0.327,0.588,0.557,��쓌,4.1,��
2023/03/07,10:30,0.575,0.835,0.508,1.068,0.743,0.326,0.587,0.556,��쓌,4.5,��
2023/03/07,10:40,0.576,0.835,0.510,1.066,0.741,0.326,0.586,0.555,��쓌,5.4,��
2023/03/07,10:50,0.575,0.839,0.509,1.069,0.740,0.324,0.589,0.557,��쓌,5.5,��
2023/03/07,11:00,0.574,0.836,0.509,1.067,0.741,0.325,0.586,0.556,��쓌,5.3,��
2023/03/07,11:10,0.576,0.837,0.509,1.067,0.742,0.325,0.588,0.556,��쓌,5.3,��
2023/03/07,11:20,0.576,0.837,0.509,1.066,0.742,0.320,0.588,0.555,��쓌,5.0,��
2023/03/07,11:30,0.575,0.838,0.506,1.068,0.740,0.320,0.587,0.557,��쓌,5.1,��
2023/03/07,11:40,0.576,0.838,0.509,1.067,0.742,0.324,0.587,0.556,��쓌,5.7,��
2023/03/07,11:50,0.576,0.838,0.508,1.065,0.739,0.325,0.589,0.555,��쓌,6.1,��
2023/03/07,12:00,0.576,0.838,0.508,1.068,0.742,0.325,0.588,0.557,��쓌,5.8,��
2023/03/07,12:10,0.576,0.839,0.508,1.067,0.741,0.324,0.589,0.557,��쓌,6.1,��
2023/03/07,12:20,0.576,0.838,0.508,1.066,0.743,0.325,0.589,0.556,��쓌,6.1,��
2023/03/07,12:30,0.578,0.840,0.508,1.070,0.741,0.326,0.589,0.557,��쓌,4.5,��
2023/03/07,12:40,0.577,0.840,0.509,1.068,0.741,0.326,0.587,0.555,�쓌,3.6,��
2023/03/07,12:50,0.577,0.838,0.508,1.068,0.741,0.327,0.589,0.556,�쓌,5.3,��
2023/03/07,13:00,0.577,0.841,0.507,1.068,0.742,0.327,0.587,0.557,��쓌,6.5,��
2023/03/07,13:10,0.577,0.838,0.507,1.068,0.742,0.327,0.589,0.557,�쓌,7.0,��
2023/03/07,13:20,0.576,0.838,0.505,1.067,0.743,0.327,0.588,0.557,��쓌,7.1,��
2023/03/07,13:30,0.577,0.838,0.505,1.066,0.742,0.328,0.589,0.558,��쓌,7.1,��
2023/03/07,13:40,0.577,0.839,0.507,1.069,0.744,0.326,0.590,0.556,��쓌,7.7,��
2023/03/07,13:50,0.577,0.840,0.507,1.068,0.741,0.327,0.589,0.557,��쓌,7.4,��
2023/03/07,14:00,0.580,0.839,0.508,1.068,0.743,0.326,0.588,0.556,��,6.1,��
2023/03/07,14:10,0.577,0.840,0.506,1.067,0.742,0.327,0.588,0.558,��쓌,7.6,��
2023/03/07,14:20,0.578,0.839,0.507,1.069,0.744,0.327,0.589,0.556,��,2.8,��
2023/03/07,14:30,0.579,0.838,0.508,1.069,0.744,0.326,0.588,0.556,��쐼,1.9,��
2023/03/07,14:40,0.577,0.841,0.507,1.068,0.744,0.326,0.588,0.557,��,4.9,��
2023/03/07,14:50,0.579,0.840,0.508,1.068,0.745,0.324,0.588,0.558,��,6.3,��
2023/03/07,15:00,0.579,0.839,0.508,1.070,0.746,0.321,0.589,0.558,��,5.8,��
2023/03/07,15:10,0.577,0.838,0.508,1.068,0.744,0.324,0.589,0.558,���쐼,6.9,��
2023/03/07,15:20,0.580,0.839,0.509,1.068,0.742,0.325,0.589,0.556,���쐼,6.4,��
2023/03/07,15:30,0.578,0.838,0.509,1.067,0.745,0.326,0.588,0.557,���쐼,6.8,��
2023/03/07,15:40,0.580,0.841,0.509,1.069,0.743,0.326,0.589,0.556,���쐼,6.9,��
2023/03/07,15:50,0.578,0.839,0.508,1.071,0.745,0.326,0.590,0.556,���쐼,6.4,��
2023/03/07,16:00,0.578,0.839,0.507,1.070,0.742,0.327,0.590,0.556,���쐼,6.9,��
2023/03/07,16:10,0.578,0.841,0.508,1.069,0.742,0.328,0.589,0.557,��,7.3,��
2023/03/07,16:20,0.578,0.843,0.509,1.069,0.743,0.328,0.590,0.558,��,6.3,��
2023/03/07,16:30,0.578,0.839,0.507,1.071,0.742,0.328,0.588,0.557,��,6.9,��
2023/03/07,16:40,0.578,0.840,0.507,1.073,0.744,0.327,0.589,0.558,��,6.1,��
2023/03/07,16:50,0.577,0.840,0.507,1.071,0.743,0.328,0.589,0.558,��,6.0,��
2023/03/07,17:00,0.577,0.840,0.508,1.072,0.741,0.329,0.589,0.560,��,5.1,��
2023/03/07,17:10,0.577,0.844,0.507,1.070,0.742,0.328,0.589,0.559,��,5.2,��
2023/03/07,17:20,0.579,0.842,0.508,1.070,0.742,0.328,0.590,0.561,��,3.9,��
2023/03/07,17:30,0.580,0.844,0.509,1.069,0.741,0.328,0.590,0.560,���쐼,3.1,��
2023/03/07,17:40,0.578,0.844,0.510,1.069,0.743,0.329,0.590,0.560,��,2.6,��
2023/03/07,17:50,0.579,0.842,0.510,1.068,0.746,0.327,0.588,0.560,���쐼,2.5,��
2023/03/07,18:00,0.580,0.841,0.508,1.070,0.744,0.327,0.591,0.560,���쐼,4.2,��
2023/03/07,18:10,0.578,0.845,0.510,1.070,0.746,0.329,0.590,0.560,���쐼,4.5,��
2023/03/07,18:20,0.580,0.841,0.510,1.072,0.743,0.328,0.591,0.560,���쐼,3.6,��
2023/03/07,18:30,0.578,0.845,0.509,1.070,0.743,0.328,0.592,0.560,���쐼,3.8,��
2023/03/07,18:40,0.578,0.841,0.509,1.070,0.744,0.327,0.590,0.559,���쐼,4.2,��
2023/03/07,18:50,0.580,0.842,0.510,1.070,0.746,0.328,0.591,0.560,���쐼,4.9,��
2023/03/07,19:00,0.580,0.842,0.509,1.069,0.744,0.327,0.590,0.560,���쐼,5.1,��
2023/03/07,19:10,0.580,0.842,0.509,1.070,0.744,0.328,0.590,0.559,�쐼,4.5,��
2023/03/07,19:20,0.579,0.840,0.508,1.069,0.744,0.328,0.590,0.559,���쐼,4.2,��
2023/03/07,19:30,0.579,0.843,0.508,1.069,0.746,0.328,0.591,0.559,���쐼,4.5,��
2023/03/07,19:40,0.577,0.844,0.511,1.070,0.745,0.328,0.590,0.559,���쐼,4.8,��
2023/03/07,19:50,0.581,0.843,0.509,1.069,0.745,0.328,0.589,0.558,���쐼,6.0,��
2023/03/07,20:00,0.579,0.843,0.511,1.071,0.744,0.327,0.591,0.559,���쐼,5.5,��
2023/03/07,20:10,0.579,0.842,0.508,1.070,0.746,0.328,0.589,0.559,��쐼,1.2,��
2023/03/07,20:20,0.578,0.839,0.509,1.070,0.745,0.326,0.591,0.559,�쓌,0.9,��
2023/03/07,20:30,0.581,0.842,0.510,1.069,0.745,0.327,0.591,0.558,��쐼,1.2,��
2023/03/07,20:40,0.579,0.843,0.508,1.068,0.746,0.328,0.589,0.559,�쐼,2.0,��
2023/03/07,20:50,0.580,0.842,0.508,1.070,0.744,0.327,0.591,0.557,�쐼,2.6,��
2023/03/07,21:00,0.578,0.843,0.509,1.069,0.744,0.328,0.589,0.559,�쐼,2.0,��
2023/03/07,21:10,0.579,0.841,0.508,1.068,0.745,0.327,0.591,0.559,���쐼,3.7,��
2023/03/07,21:20,0.578,0.842,0.509,1.068,0.744,0.327,0.590,0.557,���쐼,4.5,��
2023/03/07,21:30,0.578,0.840,0.508,1.069,0.745,0.328,0.590,0.558,���쐼,5.4,��
2023/03/07,21:40,0.579,0.841,0.509,1.071,0.745,0.327,0.589,0.558,���쐼,4.1,��
2023/03/07,21:50,0.577,0.841,0.509,1.067,0.744,0.328,0.589,0.559,���쐼,3.7,��
2023/03/07,22:00,0.579,0.842,0.506,1.069,0.746,0.327,0.589,0.558,���쐼,3.2,��
2023/03/07,22:10,0.578,0.841,0.508,1.071,0.745,0.327,0.590,0.559,�쐼,3.1,��
2023/03/07,22:20,0.578,0.842,0.508,1.068,0.745,0.327,0.588,0.560,��쐼,2.9,��
2023/03/07,22:30,0.579,0.842,0.509,1.068,0.745,0.327,0.589,0.558,�쐼,3.8,��
2023/03/07,22:40,0.581,0.840,0.507,1.071,0.746,0.326,0.588,0.558,�쐼,5.4,��
2023/03/07,22:50,0.580,0.842,0.509,1.067,0.744,0.326,0.588,0.559,���쐼,4.9,��
2023/03/07,23:00,0.580,0.843,0.509,1.070,0.743,0.326,0.590,0.559,���쐼,5.7,��
2023/03/07,23:10,0.577,0.842,0.508,1.069,0.744,0.327,0.589,0.559,�쐼,6.3,��
2023/03/07,23:20,0.580,0.843,0.508,1.071,0.745,0.327,0.590,0.559,�쐼,6.3,��
2023/03/07,23:30,0.578,0.842,0.507,1.069,0.745,0.327,0.588,0.559,�쐼,5.0,��
2023/03/07,23:40,0.579,0.843,0.508,1.068,0.745,0.325,0.589,0.559,�쐼,4.6,��
2023/03/07,23:50,0.578,0.841,0.508,1.070,0.746,0.329,0.588,0.559,�쐼,4.4,��
